CDT,Max TemperatureF,Mean TemperatureF,Min TemperatureF,Max Dew PointF,MeanDew PointF,Min DewpointF,Max Humidity, Mean Humidity, Min Humidity, Max Sea Level PressureIn, Mean Sea Level PressureIn, Min Sea Level PressureIn, Max VisibilityMiles, Mean VisibilityMiles, Min VisibilityMiles, Max Wind SpeedMPH, Mean Wind SpeedMPH, Max Gust SpeedMPH,PrecipitationIn, CloudCover, Events, WindDirDegrees
2013-3-1,62,48,35,36,32,27,87,56,26,30.25,30.19,30.12,10,10,10,18,7,30,0.00,0,,311
2013-3-2,51,43,35,34,30,27,87,64,38,30.32,30.27,30.21,10,10,10,22,8,28,0.00,0,,318
2013-3-3,60,46,32,45,33,23,100,68,25,30.31,30.22,30.09,10,10,7,13,3,,0.00,0,,173
2013-3-4,73,62,50,61,56,45,100,81,60,30.07,29.95,29.87,10,10,7,28,12,34,0.00,5,,170
2013-3-5,71,60,50,63,47,30,100,61,25,30.30,30.08,29.87,10,9,5,20,9,33,0.00,3,,310
2013-3-6,68,50,33,43,32,23,93,56,19,30.41,30.31,30.25,10,10,10,14,6,18,0.00,0,,344
2013-3-7,64,50,37,45,38,34,100,66,32,30.35,30.28,30.23,10,10,10,9,3,,0.00,0,,94
2013-3-8,69,55,41,55,49,41,100,76,49,30.28,30.21,30.12,10,9,4,12,4,17,0.00,0,,103
2013-3-9,69,63,57,63,60,55,100,90,73,30.11,30.00,29.86,10,9,5,20,9,28,0.00,3,,121
2013-3-10,69,61,51,64,58,43,100,90,67,30.02,29.89,29.82,10,8,2,21,11,30,0.31,8,Rain-Thunderstorm,83
2013-3-11,60,51,41,45,35,32,93,55,34,30.11,30.04,29.97,10,10,10,18,12,26,0.00,2,,324
2013-3-12,69,52,35,46,37,32,100,64,25,30.27,30.17,30.09,10,10,5,7,2,,0.00,0,,352
2013-3-13,71,56,41,45,36,28,100,53,21,30.45,30.37,30.28,10,10,7,14,4,20,0.00,0,,8
2013-3-14,69,55,41,48,39,32,100,61,25,30.46,30.38,30.32,10,10,10,10,3,,0.00,0,,146
2013-3-15,73,58,42,59,53,43,100,83,53,30.32,30.22,30.11,10,9,2,20,5,25,0.00,1,,186
2013-3-16,77,66,55,63,59,55,100,82,50,30.10,30.00,29.93,10,10,7,20,10,25,0.00,1,,170
2013-3-17,77,68,60,68,65,59,100,90,69,29.94,29.86,29.78,10,9,2,22,10,28,0.00,5,,156
2013-3-18,80,73,66,70,67,64,100,87,58,29.92,29.82,29.77,10,6,0,17,8,20,0.00,4,Fog,193
2013-3-19,77,66,55,64,51,41,94,56,41,30.02,29.97,29.91,10,10,5,17,9,23,0.00,2,,59
2013-3-20,73,62,51,52,41,28,94,51,20,30.20,30.10,29.98,10,10,3,17,10,26,0.12,2,Rain-Thunderstorm,16
2013-3-21,69,60,50,57,46,36,87,62,33,30.07,29.94,29.79,10,10,7,20,7,28,0.00,3,,116
2013-3-22,80,71,62,70,67,57,100,88,70,29.81,29.76,29.70,10,9,3,20,10,25,0.00,7,,160
2013-3-23,73,70,68,70,69,68,100,97,88,29.79,29.69,29.58,10,4,0,9,5,,0.01,8,Fog-Rain,72
2013-3-24,68,55,42,68,45,30,100,64,30,30.11,29.88,29.64,10,9,1,28,10,36,0.00,3,,323
2013-3-25,60,48,35,34,28,21,93,54,22,30.35,30.23,30.13,10,10,10,18,9,26,0.00,0,,334
2013-3-26,60,46,33,34,26,21,81,47,23,30.48,30.40,30.34,10,10,10,18,7,24,0.00,0,,341
2013-3-27,64,50,35,43,37,28,93,62,34,30.44,30.35,30.27,10,10,10,12,4,18,0.00,0,,124
2013-3-28,69,56,42,55,50,41,100,76,53,30.35,30.29,30.24,10,10,10,13,4,17,0.00,4,,115
2013-3-29,73,63,53,61,58,54,100,84,60,30.30,30.23,30.18,10,10,5,15,7,24,0.00,1,,130
2013-3-30,75,68,60,64,62,59,100,85,57,30.19,30.10,30.02,10,10,4,21,6,25,0.00,2,,162
2013-3-31,78,68,59,68,63,59,100,93,65,30.02,29.97,29.89,10,6,0,22,7,38,0.52,5,Fog-Rain-Thunderstorm,173